STARLINK-3208, 49769

Orbit data source: Space-Track

STARLINK-3208, 49769 is a payload satellite owned by SpaceX/Seattle (US) in LEO that was launched on Thu, 02 Dec 2021 UTC via an FALCON 9 launch vehicle from the Air Force Eastern Test Range (AFETR). Payload-class satellites include a variety of spacecraft equipped with specific instruments for various scientific and technological missions. These include communications satellites like Starlink; space stations such as the ISS; scientific satellites like the Hubble; Earth observation satellites from companies like Planet Labs, Umbra, and HawkEye 360; GPS; miniature CubeSats for education and research; and military/defense satellites.

Loading next visibility...
Identifier
49769, 2021-115AX
Orbit
LEO
Country
Flag of USUS
Related business
Manufacturer
SpaceX/Seattle
Mission
Operational Commercial Communications
Bus & Motor
STARLINK, Unknown motor
Mass
290 kg wet, ~270 kg dry
Launch date (UTC)
2021-12-02 (5 years ago)
Launch vehicle
FALCON 9
Launch site
Air Force Eastern Test Range (AFETR)
Object type
Payload
Rocket body
Debris
Shape & HBR
Box + 1 Pan, 10.1 m
Radar Cross Section
13.562 m², Large (>1 m²)

Expand to show TLE details & history
Last TLE update: 3 days ago

TLE from 3 days ago
0 STARLINK-3208
1 49769U 21115AX  26171.00320698 -.00000967  00000-0 -42680-4 0  9998
2 49769  53.1601  39.7545 0001558  87.7890 272.3279 15.08836806251122
Epoch: 2026-06-20T00:04Z
TLE epoch observation values (Epoch: 2026-06-20T00:04:37.083Z)
Latitude
-0.00007°
Longitude
130.37587°
Altitude
540.601 km
Speed
7.593 km/s
True Right ascension
02h 39m 01s
True Declination
0° 00' 00"
Sunlit
Object was in daylight at epoch
Visualization orbit readout
Latitude
Unknown
Longitude
Unknown
Altitude
Unknown
Speed
Unknown
Apparent Right ascension
Unknown
Apparent Declination
Unknown
Sunlit
N/A
Visualization observer readout
Local Sidereal Time
00:31:10
Azimuth
Unknown
Elevation
Unknown
Doppler factor
Unknown
Orbital elements
Apogee altitude
541.085 km
Perigee altitude
538.929 km
Semi-major axis
6,918.144 km
Eccentricity
0.00016
Inclination
53.1601°
RAAN
39.7545°
Arg. of periapsis
87.789°
True anomaly
272.31006°
Mean anomaly
272.3279°
Eccentric anomaly
272.31898°
Mean motion
3.77189 °/min
Orbital period
95.44 mins
BSTAR
-0.00004268
Loading maneuver chart data...
Computing Atmospheric mass density...
Loading historical data...
Loading historical data...
Loading historical data...
Loading historical data...
Loading historical data...
Loading historical data...
Loading historical data...

Documentation

Showing up to 5 results
|